Regional Weather Roundup
Issued by NWS

Home | Current Version | Previous Version | Graphics & Text | Print | Product List | Glossary Off
Versions: 1 2 3 4 5 6 7 8 9 10 11 12 13 14 15 16 17 18 19 20 21 22 23 24 25 26 27 28 29 30 31 32 33 34 35 36 37 38 39 40 41 42 43 44 45 46 47 48 49 50

000
ASUS43 KTOP 041459
RWRKS

WEATHER ROUNDUP FOR KANSAS
NATIONAL WEATHER SERVICE GOODLAND KS
900 AM CST WED MAR 04 2015

NOTE:  "FAIR" INDICATES FEW OR NO CLOUDS BELOW 12,000 FEET WITH NO
SIGNIFICANT WEATHER AND/OR OBSTRUCTIONS TO VISIBILITY.

KSZ001>006-013>018-027>032-041>047-041600-
NORTHWEST KANSAS

CITY           SKY/WX    TMP DP  RH WIND       PRES   REMARKS
GOODLAND       CLOUDY    17  13  84 N9        30.22R
HAYS           CLOUDY    19   9  63 N13       30.30R WCI   7
HILL CITY      CLOUDY    21  13  71 N7        30.31R
RUSSELL        CLOUDY    20  14  77 N15       30.29R WCI   6
$$

KSZ061>065-074>080-084>089-041600-
SOUTHWEST KANSAS

CITY           SKY/WX    TMP DP  RH WIND       PRES   REMARKS
DODGE CITY     CLOUDY    19  12  74 N18       30.25R WCI   4
ELKHART          N/A     18  12  77 NE14        N/A  WCI   4
GARDEN CITY    CLOUDY    18  13  80 NE16      30.22R WCI   3
GREAT BEND     CLOUDY    19  10  68 N15       30.30R WCI   5
LIBERAL        CLOUDY    19  12  73 N16       30.20R WCI   5
$$

KSZ066>073-081>083-090>101-041600-
SOUTHEAST KANSAS

CITY           SKY/WX    TMP DP  RH WIND       PRES   REMARKS
CHANUTE        CLOUDY    21  13  71 N17       30.26R WCI   7
COFFEYVILLE    LGT SNOW  23  17  78 N21G28    30.24R WCI   8
HUTCHINSON     CLOUDY    21  13  71 N12       30.29R WCI   9
MEDICINE LODGE   N/A     20  14  77 N18G25    30.27R WCI   5
NEWTON         PTSUNNY   19  12  73 N17       30.28R WCI   4
PARSONS        SNOW      22  17  81 N14G23    30.25R VSB 1/2 WCI   9
WICHITA INTL   LGT SNOW  20  15  81 N14G24    30.27R VSB 1   WCI   7
WICHITA JABRA  LGT SNOW  19  15  84 N16G24    30.26R FOG     WCI   4
WICHITA MCCONL FLURRIES  19  16  86 NE18      30.25R WCI   4
WINFIELD       CLOUDY    22  15  75 N17G26    30.27R WCI   8
$$

KSZ007>012-019>026-033>040-048>060-102>105-041600-
NORTHEAST KANSAS

CITY           SKY/WX    TMP DP  RH WIND       PRES   REMARKS
CONCORDIA      MOSUNNY   21  14  74 NW8       30.31R
EMPORIA        SNOW      19  15  84 N10       30.28R VSB 1/2 WCI   7
LAWRENCE       CLOUDY    22  10  60 N10G21    30.32R WCI  11
MANHATTAN      PTSUNNY   23  13  65 N7        30.33R
OLATHE IND     LGT SNOW  19  15  84 N12       30.29R VSB 1   WCI   7
OLATHE EXE     LGT SNOW  19  15  84 N12       30.27R VSB 1   WCI   7
SALINA         CLOUDY    23  12  62 N15       30.32R WCI  10
TOPEKA BILLARD CLOUDY    22  12  65 N12       30.32R WCI  10
TOPEKA FORBES  CLOUDY    22  11  62 N13       30.30R WCI  10
$$



USA.gov is the U.S. government's official web portal to all federal, state and local government web resources and services.